Wheaton, MN

6:35 AM CDT on August 24, 2016 (GMT -0500)
Wheaton Municipal

Weather History for KETH - March, 2013

Change the Weather History Date:

Sunday, March 24, 2013

  Actual Average Record
Temperature  
Mean Temperature 21 °F -  
Max Temperature 30 °F 44 °F 76 °F (1968)
Min Temperature 12 °F 24 °F -11 °F (1974)
Degree Days  
Heating Degree Days 44    
Moisture  
Dew Point 17 °F    
Average Humidity 85    
Maximum Humidity 93    
Minimum Humidity 69    
Precipitation  
Precipitation 0.00 in - - ()
Sea Level Pressure  
Sea Level Pressure 30.15 in    
Wind  
Wind Speed 10 mph (NW)    
Max Wind Speed 20 mph    
Max Gust Speed 26 mph    
Visibility 8 miles    
Events Snow    
Averages and records for this station are not official NWS values.
T = Trace of Precipitation, MM = Missing Value Source: NWS Daily Summary

Daily Weather History Graph

Daily Weather History Graph

Search for Another Location

Airport or City:

Trip Planner

Search our weather history database for the weather conditions in past years. The results will help you decide how hot, cold, wet, or windy it might be!

Date:

Astronomy

Mar. 24, 2013 Rise Set
Actual Time 7:21 AM CDT 7:44 PM CDT
Civil Twilight 6:51 AM CDT 8:14 PM CDT
Nautical Twilight 6:16 AM CDT 8:49 PM CDT
Astronomical Twilight 5:39 AM CDT 9:25 PM CDT
Moon 5:07 PM CDT 5:39 AM CDT
Length of Visible Light 13h 23m
Length of Day
12h 23m
Waxing Gibbous, 92% of the Moon is Illuminated
Mar 24
Waxing Gibbous
Mar 27
Full
Apr 2
Last Quarter
Apr 10
New
Apr 18
First Quarter

Hourly Weather History & Observations

Time (CDT) Temp. Windchill Dew Point Humidity Pressure Visibility Wind Dir Wind Speed Gust Speed Precip Events Conditions
12:14 AM 17.6 °F 8.2 °F 15.8 °F 93% 30.19 in 10.0 mi WNW 6.9 mph - N/A   Clear
12:35 AM 15.8 °F 6.1 °F 14.0 °F 93% 30.19 in 10.0 mi WNW 6.9 mph - N/A   Clear
12:55 AM 15.8 °F 8.6 °F 12.2 °F 86% 30.19 in 10.0 mi WNW 4.6 mph - N/A   Clear
1:14 AM 15.8 °F 8.6 °F 12.2 °F 86% 30.18 in 10.0 mi WNW 4.6 mph - N/A   Clear
1:35 AM 15.8 °F 7.2 °F 12.2 °F 86% 30.18 in 10.0 mi West 5.8 mph - N/A   Clear
1:55 AM 15.8 °F 5.1 °F 12.2 °F 86% 30.18 in 10.0 mi West 8.1 mph - N/A   Clear
2:35 AM 14.0 °F 3.9 °F 10.4 °F 86% 30.17 in 10.0 mi WNW 6.9 mph - N/A   Clear
2:55 AM 14.0 °F 2.9 °F 10.4 °F 86% 30.17 in 10.0 mi WNW 8.1 mph - N/A   Clear
3:14 AM 14.0 °F 3.9 °F 10.4 °F 86% 30.16 in 10.0 mi WNW 6.9 mph - N/A   Clear
3:35 AM 12.2 °F 1.7 °F 10.4 °F 92% 30.16 in 10.0 mi West 6.9 mph - N/A   Clear
3:55 AM 12.2 °F 0.7 °F 10.4 °F 92% 30.16 in 10.0 mi West 8.1 mph - N/A   Scattered Clouds
4:14 AM 12.2 °F 1.7 °F 10.4 °F 92% 30.15 in 10.0 mi West 6.9 mph - N/A   Overcast
4:34 AM 12.2 °F 2.9 °F 10.4 °F 92% 30.15 in 10.0 mi WNW 5.8 mph - N/A   Overcast
4:54 AM 12.2 °F 0.7 °F 10.4 °F 92% 30.15 in 10.0 mi WNW 8.1 mph - N/A   Overcast
5:15 AM 12.2 °F 0.7 °F 10.4 °F 92% 30.14 in 10.0 mi WNW 8.1 mph - N/A   Overcast
5:34 AM 12.2 °F 1.7 °F 10.4 °F 92% 30.14 in 10.0 mi WNW 6.9 mph - N/A   Overcast
5:54 AM 12.2 °F 2.9 °F 10.4 °F 92% 30.15 in 10.0 mi WNW 5.8 mph - N/A   Overcast
6:14 AM 12.2 °F 1.7 °F 10.4 °F 92% 30.15 in 10.0 mi WNW 6.9 mph - N/A   Overcast
6:34 AM 12.2 °F 1.7 °F 10.4 °F 92% 30.15 in 10.0 mi WNW 6.9 mph - N/A   Overcast
6:54 AM 12.2 °F 0.7 °F 10.4 °F 92% 30.14 in 10.0 mi WNW 8.1 mph - N/A   Overcast
7:14 AM 12.2 °F 1.7 °F 10.4 °F 92% 30.15 in 10.0 mi WNW 6.9 mph - N/A   Overcast
7:34 AM 14.0 °F 5.1 °F 12.2 °F 93% 30.15 in 10.0 mi WNW 5.8 mph - N/A Snow Light Snow
7:54 AM 14.0 °F 5.1 °F 12.2 °F 93% 30.15 in 10.0 mi WNW 5.8 mph - N/A Snow Light Snow
8:14 AM 14.0 °F 2.9 °F 12.2 °F 93% 30.15 in 4.0 mi WNW 8.1 mph - N/A Snow Light Snow
8:35 AM 15.8 °F 6.1 °F 12.2 °F 86% 30.14 in 3.0 mi WNW 6.9 mph - N/A Snow Light Snow
8:55 AM 15.8 °F 5.1 °F 12.2 °F 86% 30.14 in 2.5 mi WNW 8.1 mph - N/A Snow Light Snow
9:14 AM 15.8 °F 4.2 °F 14.0 °F 93% 30.13 in 3.0 mi WNW 9.2 mph - N/A Snow Light Snow
9:34 AM 17.6 °F 7.3 °F 15.8 °F 93% 30.13 in 2.0 mi WNW 8.1 mph - N/A Snow Light Snow
9:55 AM 17.6 °F 5.7 °F 15.8 °F 93% 30.13 in 3.0 mi NW 10.4 mph - N/A Snow Light Snow
10:15 AM 19.4 °F 7.9 °F 15.8 °F 86% 30.13 in 5.0 mi NW 10.4 mph - N/A Snow Light Snow
10:34 AM 19.4 °F 7.9 °F 15.8 °F 86% 30.13 in 7.0 mi NW 10.4 mph - N/A Snow Light Snow
10:55 AM 19.4 °F 8.6 °F 15.8 °F 86% 30.12 in 10.0 mi NW 9.2 mph - N/A Snow Light Snow
11:14 AM 19.4 °F 7.9 °F 17.6 °F 93% 30.12 in 10.0 mi NW 10.4 mph - N/A   Overcast
11:35 AM 19.4 °F 6.0 °F 15.8 °F 86% 30.12 in 10.0 mi NW 13.8 mph - N/A   Mostly Cloudy
11:54 AM 21.2 °F 9.5 °F 17.6 °F 86% 30.13 in 10.0 mi NNW 11.5 mph - N/A   Mostly Cloudy
12:14 PM 21.2 °F 10.1 °F 17.6 °F 86% 30.12 in 10.0 mi NW 10.4 mph - N/A   Mostly Cloudy
12:34 PM 23.0 °F 10.6 °F 19.4 °F 86% 30.12 in 10.0 mi NNW 13.8 mph - N/A   Mostly Cloudy
12:54 PM 24.8 °F 12.9 °F 19.4 °F 80% 30.12 in 10.0 mi NNW 13.8 mph - N/A Snow Light Snow
1:14 PM 24.8 °F 14.0 °F 21.2 °F 86% 30.12 in 1.8 mi NNW 11.5 mph - N/A Snow Light Snow
1:35 PM 24.8 °F 13.4 °F 21.2 °F 86% 30.12 in 3.0 mi NNW 12.7 mph - N/A Snow Light Snow
1:55 PM 24.8 °F 14.0 °F 21.2 °F 86% 30.12 in 5.0 mi NNW 11.5 mph - N/A   Overcast
2:14 PM 26.6 °F 16.8 °F 21.2 °F 80% 30.12 in 10.0 mi NNW 10.4 mph - N/A   Mostly Cloudy
2:35 PM 26.6 °F 15.7 °F 21.2 °F 80% 30.11 in 10.0 mi NNW 12.7 mph - N/A   Scattered Clouds
2:55 PM 26.6 °F 15.2 °F 21.2 °F 80% 30.11 in 10.0 mi NNW 13.8 mph - N/A   Scattered Clouds
3:14 PM 28.4 °F 17.0 °F 21.2 °F 74% 30.12 in 10.0 mi NNW 15.0 mph - N/A   Overcast
3:34 PM 28.4 °F 18.0 °F 21.2 °F 74% 30.12 in 10.0 mi NNW 12.7 mph - N/A   Overcast
3:54 PM 28.4 °F 17.5 °F 21.2 °F 74% 30.12 in 10.0 mi NNW 13.8 mph - N/A   Overcast
4:14 PM 30.2 °F 19.8 °F 21.2 °F 69% 30.12 in 10.0 mi North 13.8 mph - N/A   Overcast
4:35 PM 28.4 °F 15.8 °F 21.2 °F 74% 30.13 in 10.0 mi North 18.4 mph 24.2 mph N/A   Overcast
4:54 PM 28.4 °F 16.6 °F 21.2 °F 74% 30.13 in 10.0 mi NNW 16.1 mph - N/A   Mostly Cloudy
5:14 PM 28.4 °F 17.0 °F 21.2 °F 74% 30.13 in 10.0 mi NNW 15.0 mph - N/A   Scattered Clouds
5:34 PM 28.4 °F 16.2 °F 19.4 °F 69% 30.13 in 10.0 mi NNW 17.3 mph 21.9 mph N/A   Clear
5:54 PM 28.4 °F 15.4 °F 19.4 °F 69% 30.13 in 10.0 mi NNW 19.6 mph 25.3 mph N/A   Clear
6:15 PM 26.6 °F 15.2 °F 19.4 °F 74% 30.14 in 10.0 mi NNW 13.8 mph 23.0 mph N/A   Clear
6:34 PM 26.6 °F 15.2 °F 21.2 °F 80% 30.14 in 10.0 mi NW 13.8 mph - N/A   Clear
6:54 PM 26.6 °F 15.2 °F 19.4 °F 74% 30.15 in 10.0 mi NW 13.8 mph 21.9 mph N/A   Scattered Clouds
7:14 PM 26.6 °F 14.3 °F 21.2 °F 80% 30.16 in 10.0 mi NW 16.1 mph 20.7 mph N/A   Overcast
7:35 PM 24.8 °F 12.9 °F 19.4 °F 80% 30.16 in 10.0 mi NW 13.8 mph 19.6 mph N/A   Overcast
7:54 PM 24.8 °F 11.9 °F 21.2 °F 86% 30.16 in 10.0 mi NW 16.1 mph - N/A   Overcast
8:14 PM 24.8 °F 11.9 °F 21.2 °F 86% 30.16 in 5.0 mi NW 16.1 mph 20.7 mph N/A Snow Light Snow
8:34 PM 24.8 °F 11.5 °F 21.2 °F 86% 30.17 in 4.0 mi NW 17.3 mph - N/A Snow Light Snow
8:54 PM 24.8 °F 11.1 °F 21.2 °F 86% 30.17 in 2.5 mi NW 18.4 mph 23.0 mph N/A Snow Light Snow
9:14 PM 24.8 °F 11.1 °F 21.2 °F 86% 30.17 in 2.5 mi NW 18.4 mph 23.0 mph N/A Snow Light Snow
9:35 PM 23.0 °F 9.6 °F 21.2 °F 93% 30.17 in 10.0 mi NW 16.1 mph 20.7 mph N/A Snow Light Snow
9:55 PM 24.8 °F 11.5 °F 19.4 °F 80% 30.17 in 10.0 mi NW 17.3 mph 23.0 mph N/A Snow Light Snow
10:14 PM 23.0 °F 9.6 °F 19.4 °F 86% 30.18 in 7.0 mi NW 16.1 mph - N/A Snow Light Snow
10:35 PM 23.0 °F 8.7 °F 19.4 °F 86% 30.18 in 7.0 mi NW 18.4 mph 25.3 mph N/A Snow Light Snow
10:54 PM 23.0 °F 8.7 °F 21.2 °F 93% 30.18 in 7.0 mi NW 18.4 mph 23.0 mph N/A Snow Light Snow
11:15 PM 23.0 °F 8.7 °F 19.4 °F 86% 30.18 in 4.0 mi NW 18.4 mph 26.5 mph N/A Snow Light Snow
11:35 PM 23.0 °F 9.6 °F 19.4 °F 86% 30.19 in 5.0 mi NW 16.1 mph 23.0 mph N/A Snow Light Snow
11:55 PM 23.0 °F 9.2 °F 19.4 °F 86% 30.19 in 5.0 mi NW 17.3 mph - N/A Snow Light Snow